This is the latest recevied weather packets stored in our database for station/object KC3VCX. If no packets are shown the sender has not sent any weather packets the latest 10 day(s).
| Time | Temp. | Humidity | Pressure | Rain* | Wind** | Luminosity | Snow |
|---|---|---|---|---|---|---|---|
| 1777310828 | 21.11° C | 37% | 1022.8 hPa | 0 mm | - | 804 W/m² | - |
| 1777310526 | 20.56° C | 38% | 1023.1 hPa | 0 mm | - | 832 W/m² | - |
| 1777310222 | 20° C | 37% | 1023.1 hPa | 0 mm | - | 862 W/m² | - |
| 1777309920 | 20.56° C | 38% | 1023.3 hPa | 0 mm | - | 870 W/m² | - |
| 1777309618 | 21.11° C | 36% | 1023.3 hPa | 0 mm | - | 858 W/m² | - |
| 1777309315 | 20.56° C | 39% | 1023.2 hPa | 0 mm | - | 808 W/m² | - |
| 1777309013 | 20° C | 39% | 1023.5 hPa | 0 mm | - | 821 W/m² | - |
| 1777308709 | 20° C | 38% | 1023.4 hPa | 0 mm | - | 823 W/m² | - |
| 1777308404 | 20° C | 41% | 1023.3 hPa | 0 mm | - | 787 W/m² | - |
| 1777308100 | 20.56° C | 40% | 1023.4 hPa | 0 mm | - | 790 W/m² | - |
| 1777307798 | 20° C | 41% | 1023.3 hPa | 0 mm | - | 763 W/m² | - |
| 1777307495 | 19.44° C | 41% | 1023.3 hPa | 0 mm | - | 777 W/m² | - |
| 1777307192 | 19.44° C | 43% | 1023.4 hPa | 0 mm | - | 751 W/m² | - |
| 1777306889 | 19.44° C | 41% | 1023.5 hPa | 0 mm | - | 705 W/m² | - |
| 1777306586 | 20° C | 43% | 1023.8 hPa | 0 mm | - | 757 W/m² | - |
| 1777306281 | 18.89° C | 42% | 1023.6 hPa | 0 mm | - | 771 W/m² | - |
| 1777305977 | 18.89° C | 42% | 1023.8 hPa | 0 mm | - | 758 W/m² | - |
| 1777305674 | 19.44° C | 42% | 1023.9 hPa | 0 mm | - | 744 W/m² | - |
| 1777305369 | 18.33° C | 42% | 1023.8 hPa | 0 mm | - | 703 W/m² | - |
| 1777305064 | 18.33° C | 42% | 1023.9 hPa | 0 mm | - | 709 W/m² | - |
| 1777304759 | 18.33° C | 44% | 1024.1 hPa | 0 mm | - | 732 W/m² | - |
| 1777304456 | 18.33° C | 42% | 1024.1 hPa | 0 mm | - | 701 W/m² | - |
| 1777304154 | 18.89° C | 43% | 1024.2 hPa | 0 mm | - | 675 W/m² | - |
| 1777303851 | 18.89° C | 43% | 1024 hPa | 0 mm | - | 731 W/m² | - |
| 1777303548 | 18.33° C | 45% | 1024.1 hPa | 0 mm | - | 735 W/m² | - |
* Rain latest hour (hover to see other rain measurements)
** Current wind speed in m/s (hover to see current wind gust speed)